Location: *
(45.1961°N, 1.9694°E)
Time: 12:22:45
(UTC+00:00)

Cosmos 2360 Rocket - Pass Details

Date: 25 August 2019
Orbit: 834 x 845 km, 71.0° (Epoch: 21 September)

Event Time Altitude Azimuth Distance (km) Brightness Sun altitude
Rises 21:35:30 0° 340° (NNW) 3,396 6.5 -26.0°
Reaches altitude 10° 21:38:20 10° 353° (N) 2,459 5.4 -26.3°
Maximum altitude 21:43:06 27° 50° (NE) 1,558 3.6 -26.8°
Enters shadow 21:43:39 27° 60° (ENE) 1,573 3.5 -26.9°
